EW6157 Weather Reports


time (UTC)temp
C
wind
direction
speed
KPH
gust
KPH
rain 1hr
cm
rain 24hr
cm
rain mn
cm
humidity
%
barometer
mb
20260507113040 3 285 1.6 6.4 0.00 0.00 0.00 92 1020.1
20260507111537 4 263 1.6 6.4 0.00 0.00 0.00 92 1020.1
20260507110035 4 261 0.0 4.8 0.00 0.00 0.00 92 1020.2
20260507104536 4 291 0.0 4.8 0.00 0.00 0.00 92 1020.2
20260507103033 3 285 0.0 3.2 0.00 0.00 0.00 91 1020.3
20260507101539 3 271 0.0 0.0 0.00 0.00 0.00 90 1020.4
20260507100045 4 271 0.0 0.0 0.00 0.00 0.00 90 1020.4
20260507094531 4 296 0.0 1.6 0.00 0.00 0.00 90 1020.3
20260507093030 4 297 0.0 4.8 0.00 0.00 0.00 90 1020.4
20260507091529 3 58 0.0 0.0 0.00 0.00 0.00 88 1020.0
20260507090024 4 58 0.0 0.0 0.00 0.00 0.00 87 1019.9
20260507084522 4 58 0.0 0.0 0.00 0.00 0.00 84 1019.9
20260507083019 5 58 0.0 0.0 0.00 0.00 0.00 83 1019.9
20260507081517 6 58 0.0 0.0 0.00 0.00 0.00 83 1020.1
20260507080014 6 71 0.0 0.0 0.00 0.00 0.00 83 1019.9
20260507074512 6 69 1.6 6.4 0.00 0.00 0.00 82 1020.0
20260507073009 6 75 0.0 0.0 0.00 0.00 0.00 81 1020.4
20260507071504 6 283 0.0 6.4 0.00 0.00 0.00 78 1021.1
20260507070000 7 347 1.6 9.7 0.00 0.00 0.00 72 1021.2
20260507064559 7 285 0.0 8.0 0.00 0.00 0.00 69 1021.5
20260507063058 7 18 0.0 8.0 0.00 0.00 0.00 67 1021.2
20260507061554 7 345 1.6 8.0 0.00 0.00 0.00 67 1021.1
20260507060058 8 15 0.0 9.7 0.00 0.00 0.00 66 1020.5
20260507054548 8 36 3.2 16.1 0.00 0.00 0.00 65 1020.2
20260507053046 8 5 3.2 12.9 0.00 0.00 0.00 64 1020.3
20260507051544 8 31 1.6 12.9 0.00 0.00 0.00 64 1020.0
20260507050042 8 342 3.2 14.5 0.00 0.00 0.00 64 1019.9
20260507044542 8 344 6.4 20.9 0.00 0.00 0.00 63 1020.3
20260507043042 8 259 4.8 12.9 0.00 0.00 0.00 61 1020.2
20260507041543 8 9 6.4 19.3 0.00 0.00 0.00 60 1019.7
20260507040034 9 81 3.2 20.9 0.00 0.00 0.00 59 1019.4
20260507034534 9 316 6.4 16.1 0.00 0.00 0.00 58 1019.4
20260507033035 10 207 6.4 22.5 0.00 0.00 0.00 58 1019.2
20260507031531 10 41 4.8 17.7 0.00 0.00 0.00 58 1019.0
20260507030028 11 343 6.4 22.5 0.00 0.00 0.00 55 1018.5
20260507024525 11 288 6.4 17.7 0.00 0.00 0.00 53 1018.3
20260507023023 12 4 6.4 22.5 0.00 0.00 0.00 52 1017.8
20260507021519 12 339 4.8 14.5 0.00 0.00 0.00 53 1017.1
20260507020018 12 329 3.2 14.5 0.00 0.00 0.00 52 1017.0
20260507014517 12 29 6.4 16.1 0.00 0.00 0.00 52 1016.1
20260507013019 12 37 4.8 14.5 0.00 0.00 0.00 51 1015.5
20260507011517 13 19 11.3 20.9 0.00 0.00 0.00 50 1014.8
20260507010010 13 47 12.9 22.5 0.00 0.00 0.00 48 1014.5
20260507004523 14 45 9.7 25.7 0.00 0.00 0.00 48 1014.1
20260507003009 14 64 9.7 17.7 0.00 0.00 0.00 48 1014.1
20260507001507 14 39 11.3 25.7 0.00 0.00 0.00 47 1013.6
20260507000011 14 61 14.5 22.5 0.00 0.00 0.00 48 1013.3
20260506234508 14 49 14.5 27.4 0.00 0.00 0.00 48 1013.2
20260506233006 15 20 12.9 27.4 0.00 0.00 0.00 47 1013.3
20260506231516 14 48 11.3 30.6 0.00 0.00 0.00 48 1013.3
20260506230004 14 29 11.3 25.7 0.00 0.00 0.00 49 1013.2
20260506224504 14 39 12.9 29.0 0.00 0.00 0.00 48 1013.2
20260506223005 14 45 17.7 25.7 0.00 0.00 0.00 48 1013.5
20260506221503 14 41 16.1 22.5 0.00 0.00 0.00 48 1013.5
20260506220002 14 56 14.5 37.0 0.00 0.00 0.00 48 1013.6
20260506214503 15 38 14.5 29.0 0.00 0.00 0.00 48 1013.6
20260506213140 15 155 12.9 22.5 0.00 0.00 0.00 47 1013.6
20260506211627 15 126 12.9 20.9 0.00 0.00 0.00 47 1013.7
20260506204600 16 109 9.7 20.9 0.00 0.00 0.00 46 1013.7
20260506203102 15 124 9.7 20.9 0.00 0.00 0.00 47 1013.9
20260506201604 15 108 11.3 24.1 0.00 0.00 0.00 46 1013.7
20260506200100 15 158 9.7 29.0 0.00 0.00 0.00 46 1013.8
20260506194604 14 96 4.8 20.9 0.00 0.00 0.00 49 1013.8
20260506193052 14 165 6.4 20.9 0.00 0.00 0.00 49 1014.2
20260506191551 15 167 6.4 17.7 0.00 0.00 0.00 49 1014.2
20260506190050 14 138 9.7 16.1 0.00 0.00 0.00 48 1014.5
20260506184600 14 154 8.0 16.1 0.00 0.00 0.00 49 1014.4
20260506183059 14 107 6.4 17.7 0.00 0.00 0.00 50 1014.8
20260506181547 13 131 4.8 14.5 0.00 0.00 0.00 52 1015.0
20260506180049 14 124 8.0 12.9 0.00 0.00 0.00 48 1015.3
20260506174546 13 98 3.2 11.3 0.00 0.00 0.00 51 1015.3
20260506173049 13 351 3.2 12.9 0.00 0.00 0.00 51 1015.4
20260506171541 11 151 4.8 12.9 0.00 0.00 0.00 55 1015.4
20260506170057 12 155 3.2 12.9 0.00 0.00 0.00 54 1015.4
20260506164537 12 120 4.8 9.7 0.00 0.00 0.00 54 1015.4
20260506163034 11 115 3.2 12.9 0.00 0.00 0.00 58 1015.4
20260506161533 10 101 4.8 12.9 0.00 0.00 0.00 59 1015.3
20260506160032 10 192 1.6 14.5 0.00 0.00 0.00 60 1015.0
20260506154531 9 155 3.2 11.3 0.00 0.00 0.00 64 1014.9
20260506153024 8 202 0.0 8.0 0.00 0.00 0.00 64 1014.8
20260506151522 8 183 3.2 12.9 0.00 0.00 0.00 65 1014.8
20260506150019 8 187 1.6 11.3 0.00 0.00 0.00 67 1014.9
20260506144517 8 181 3.2 9.7 0.00 0.00 0.00 65 1014.6
20260506143025 8 188 4.8 11.3 0.00 0.00 0.00 67 1014.3
20260506141511 7 166 6.4 16.1 0.00 0.00 0.00 68 1013.9
20260506140011 6 157 8.0 16.1 0.00 0.00 0.00 70 1014.1
20260506134511 6 143 9.7 19.3 0.00 0.00 0.00 71 1013.9
20260506133009 6 158 9.7 17.7 0.00 0.00 0.00 71 1013.9
20260506131510 6 155 6.4 14.5 0.00 0.00 0.00 73 1014.1
20260506130012 5 163 6.4 12.9 0.00 0.00 0.00 74 1014.5
20260506124506 5 120 4.8 11.3 0.00 0.00 0.00 74 1014.3
20260506123006 5 158 4.8 8.0 0.00 0.00 0.00 75 1014.1
20260506121503 5 123 6.4 12.9 0.00 0.00 0.00 76 1013.9
20260506120002 5 124 3.2 12.9 0.00 0.00 0.00 78 1013.7
20260506114558 5 122 6.4 14.5 0.00 0.00 0.00 82 1013.3